This demonstration page uses our WeatherBlox Daily Observations layout. Learn more.

Left ArrowRight Arrow

53.62937, 11.41316

Hourly Observations for November 8, 2021

Temp ( °F °C ) Dew Point ( °F °C ) Humidity (%) Winds ( mph kmh ) Pressure ( in mb ) Visibility ( mi km ) Precip ( " mm )
12:20 am 00:20 Mostly Cloudy 48 9 48 9 100 100 W 9 15 29.83 1010 30 48 N/A
12:50 am 00:50 Mostly Cloudy 48 9 48 9 100 100 W 9 15 29.86 1011 30 48 N/A
1:20 am 01:20 Mostly Cloudy 48 9 48 9 100 100 W 8 13 29.86 1011 30 48 N/A
1:50 am 01:50 Mostly Cloudy 48 9 48 9 100 100 W 8 13 29.86 1011 2 4 N/A
2:20 am 02:20 Mostly Cloudy 48 9 48 9 100 100 W 12 19 29.89 1012 2 4 N/A
2:50 am 02:50 Mostly Cloudy 50 10 46 8 88 88 W 10 17 29.89 1012 30 48 N/A
3:20 am 03:20 Mostly Cloudy 48 9 46 8 94 94 W 9 15 29.92 1013 30 48 N/A
3:50 am 03:50 Mostly Cloudy 48 9 46 8 94 94 W 8 13 29.92 1013 30 48 N/A
4:20 am 04:20 Mostly Cloudy 48 9 46 8 94 94 W 9 15 29.92 1013 30 48 N/A
4:50 am 04:50 Mostly Cloudy 48 9 46 8 94 94 W 8 13 29.94 1014 30 48 N/A
5:20 am 05:20 Mostly Cloudy 48 9 46 8 94 94 WSW 7 11 29.94 1014 30 48 N/A
5:50 am 05:50 Cloudy 48 9 46 8 94 94 WSW 8 13 29.94 1014 30 48 N/A
6:20 am 06:20 Mostly Cloudy 48 9 46 8 94 94 W 7 11 29.97 1015 30 48 N/A
6:50 am 06:50 Mostly Cloudy 48 9 46 8 94 94 W 8 13 29.97 1015 30 48 N/A
7:20 am 07:20 Mostly Cloudy 48 9 46 8 94 94 WSW 6 9 29.97 1015 30 48 N/A
7:50 am 07:50 Mostly Cloudy with Drizzle 48 9 46 8 94 94 WSW 8 13 30.00 1016 3 5 N/A
8:20 am 08:20 Mostly Cloudy with Light Rain 46 8 46 8 100 100 WSW 9 15 30.00 1016 2 3 N/A
8:50 am 08:50 Mostly Cloudy 46 8 46 8 100 100 WSW 8 13 30.00 1016 4 7 N/A
9:20 am 09:20 Partly Cloudy 48 9 45 7 87 87 WSW 8 13 30.03 1017 30 48 N/A
10:20 am 10:20 Partly Cloudy 48 9 45 7 87 87 WSW 9 15 30.03 1017 30 48 N/A
10:50 am 10:50 Partly Cloudy 48 9 45 7 87 87 WSW 8 13 30.06 1018 30 48 N/A
11:20 am 11:20 Partly Cloudy 48 9 45 7 87 87 WSW 9 15 30.06 1018 30 48 N/A
11:50 am 11:50 Partly Cloudy 50 10 46 8 88 88 WSW 8 13 30.06 1018 30 48 N/A
12:20 pm 12:20 Mostly Cloudy 50 10 46 8 88 88 WSW 6 9 30.06 1018 30 48 N/A
12:50 pm 12:50 Mostly Cloudy with Drizzle 48 9 46 8 94 94 WSW 10 17 30.06 1018 2 4 N/A
1:20 pm 13:20 Mostly Cloudy with Light Rain 48 9 46 8 94 94 SW 6 9 30.06 1018 2 3 N/A
1:50 pm 13:50 Mostly Cloudy with Light Rain 48 9 46 8 94 94 VRB 5 7 30.06 1018 2 3 N/A
2:20 pm 14:20 Mostly Cloudy with Drizzle 48 9 46 8 94 94 SW 5 7 30.06 1018 4 6 N/A
2:50 pm 14:50 Mostly Cloudy with Drizzle 48 9 48 9 100 100 VRB 3 6 30.06 1018 2 4 N/A
3:20 pm 15:20 Mostly Cloudy with Light Rain 48 9 48 9 100 100 WSW 5 7 30.06 1018 2 3 N/A
3:50 pm 15:50 Mostly Cloudy 48 9 48 9 100 100 VRB 5 7 30.06 1018 4 7 N/A
4:20 pm 16:20 Mostly Cloudy with Mist and Fog 48 9 48 9 100 100 WSW 3 6 30.06 1018 3 4 N/A
4:50 pm 16:50 Partly Cloudy 48 9 46 8 94 94 VRB 2 4 30.09 1019 30 48 N/A
5:20 pm 17:20 Mostly Clear 48 9 46 8 94 94 WSW 1 2 30.09 1019 30 48 N/A
5:50 pm 17:50 Mostly Cloudy 48 9 48 9 100 100 W 3 6 30.12 1020 30 48 N/A
6:20 pm 18:20 Mostly Cloudy 48 9 48 9 100 100 W 3 6 30.12 1020 30 48 N/A
6:50 pm 18:50 Mostly Cloudy 48 9 48 9 100 100 W 3 6 30.12 1020 30 48 N/A
7:20 pm 19:20 Partly Cloudy with Patchy Fog 48 9 46 8 94 94 W 2 4 30.15 1021 4 6 N/A
7:50 pm 19:50 Mostly Cloudy 46 8 46 8 100 100 NW 5 7 30.15 1021 4 7 N/A
8:20 pm 20:20 Mostly Cloudy 46 8 46 8 100 100 WNW 7 11 30.15 1021 4 6 N/A
8:50 pm 20:50 Mostly Cloudy with Mist and Fog 46 8 46 8 100 100 NW 5 7 30.18 1022 1 1 N/A
9:20 pm 21:20 Mostly Cloudy with Mist and Fog 46 8 46 8 100 100 VRB 2 4 30.18 1022 1 1 N/A
9:50 pm 21:50 Mostly Cloudy with Fog 46 8 46 8 100 100 Calm 30.18 1022 1 1 N/A
10:20 pm 22:20 Mostly Cloudy 46 8 46 8 100 100 Calm 30.18 1022 1 1 N/A
10:50 pm 22:50 Mostly Cloudy 46 8 46 8 100 100 SE 2 4 30.21 1023 1 2 N/A
11:20 pm 23:20 Mostly Cloudy 46 8 46 8 100 100 VRB 2 4 30.21 1023 2 4 N/A
11:50 pm 23:50 Mostly Cloudy 46 8 46 8 100 100 VRB 1 2 30.21 1023 3 5 N/A

Powered by AerisWeather